Location: B�rgermoos
(47.6500°N, 9.0667°E)
Time: 09:43:08
(UTC+00:00)

Vanguard 3 - Pass Details

Date: 06 August 2021
Orbit: 510 x 3260 km, 33.4° (Epoch: 23 September)

Event Time Altitude Azimuth Distance (km) Brightness Sun altitude
Rises 22:52:42 0° 274° (W) 6,940 12.1 -25.4°
Reaches altitude 10° 22:59:56 10° 258° (WSW) 6,143 11.5 -25.6°
Maximum altitude 23:09:58 17° 227° (SW) 5,595 11.0 -25.8°
Enters shadow 23:13:01 16° 216° (SW) 5,591 11.0 -25.8°
